START_TIME,STEP,MOV.,M15,t_acc.,M20,t_acc.
1979-07-16 12:00:44.070 ,0,0,0.,24.0,0.,24.0
1979-07-16 12:01:08.070 ,1,1,0.,24.0,0.,24.0
1979-07-16 12:01:32.070 ,1,0,0.,24.0,0.,24.0
1979-07-16 12:01:56.070 ,2,1,0.,24.0,0.,24.0
1979-07-16 12:02:20.070 ,2,0,0.,24.0,0.,24.0
1979-07-16 12:02:44.070 ,3,1,0.,24.0,0.,24.0
1979-07-16 12:03:08.070 ,3,0,0.,24.0,0.,24.0
1979-07-16 12:03:32.070 ,4,1,0.,24.0,0.,24.0
1979-07-16 12:03:56.070 ,4,0,0.,24.0,0.,24.0
1979-07-16 12:04:20.070 ,5,1,0.,24.0,0.,24.0
1979-07-16 12:04:44.070 ,5,0,0.,24.0,0.,24.0
1979-07-16 12:05:08.070 ,6,1,0.,24.0,0.,24.0
1979-07-16 12:05:32.070 ,6,0,0.,24.0,0.,24.0
1979-07-16 12:05:56.070 ,7,1,0.,24.0,0.,24.0
1979-07-16 12:06:20.070 ,7,0,0.,24.0,0.,24.0
1979-07-16 12:06:44.070 ,7,1,0.,24.0,0.,24.0
1979-07-16 12:07:08.070 ,7,0,0.,24.0,0.,24.0
1979-07-16 12:07:32.070 ,6,1,0.,24.0,0.,24.0
1979-07-16 12:07:56.070 ,6,0,0.,24.0,0.,24.0
1979-07-16 12:09:56.070 ,0,0,0.,24.0,0.,24.0
1979-07-16 12:10:20.070 ,0,0,0.,24.0,0.,24.0
1979-07-16 12:10:44.070 ,2,1,0.,24.0,0.,24.0
1979-07-16 12:11:08.070 ,2,0,0.,24.0,0.,24.0
1979-07-16 12:12:20.070 ,0,0,0.,24.0,0.,24.0
1979-07-16 12:12:44.070 ,0,0,0.,24.0,0.,24.0
1979-07-16 12:13:08.070 ,0,1,0.,24.0,0.,24.0
1979-07-16 12:13:32.070 ,0,0,0.,24.0,0.,24.0
1979-07-16 12:13:56.070 ,1,1,0.,24.0,0.,24.0
1979-07-16 12:14:20.070 ,1,0,0.,24.0,0.,24.0
1979-07-16 12:15:32.070 ,0,0,0.,24.0,0.,24.0
1979-07-16 12:15:56.070 ,0,0,0.,24.0,0.,24.0
1979-07-16 12:16:20.070 ,4,1,0.,24.0,0.,24.0
1979-07-16 12:16:44.070 ,4,0,0.,24.0,0.,24.0
1979-07-16 12:17:08.070 ,5,1,0.,24.0,0.,24.0
1979-07-16 12:17:32.070 ,5,0,0.,24.0,0.,24.0
1979-07-16 12:17:56.070 ,6,1,0.,24.0,0.,24.0
1979-07-16 12:18:20.070 ,6,0,0.,24.0,0.,24.0
1979-07-16 12:18:44.070 ,7,0,0.,24.0,0.,24.0
1979-07-16 12:19:08.070 ,7,0,0.,24.0,0.,24.0
1979-07-16 12:19:32.070 ,3,1,0.,24.0,0.,24.0
1979-07-16 12:19:56.070 ,0,1,0.,24.0,0.,24.0
1979-07-16 12:20:20.070 ,4,1,0.,24.0,0.,24.0
1979-07-16 12:20:44.070 ,7,1,0.,24.0,0.,24.0
1979-07-16 12:21:08.070 ,3,1,0.,24.0,0.,24.0
1979-07-16 12:21:32.070 ,0,1,0.,24.0,0.,24.0
1979-07-16 12:21:56.070 ,4,1,0.,24.0,0.,24.0
1979-07-16 12:22:20.070 ,7,1,0.,24.0,0.,24.0
1979-07-16 12:22:44.070 ,3,1,0.,24.0,0.,24.0
1979-07-16 12:23:08.070 ,0,1,0.,24.0,0.,24.0
1979-07-16 12:23:32.070 ,4,1,0.,24.0,0.,24.0
1979-07-16 12:23:56.070 ,7,1,0.,24.0,0.,24.0
1979-07-16 12:24:20.070 ,3,1,0.,24.0,0.,24.0
1979-07-16 12:24:44.070 ,0,1,0.,24.0,0.,24.0
1979-07-16 12:25:08.070 ,4,1,0.,24.0,0.,24.0
1979-07-16 12:25:32.070 ,7,1,0.,24.0,0.,24.0
1979-07-16 12:25:56.070 ,3,1,0.,24.0,0.,24.0
1979-07-16 12:26:20.070 ,0,1,0.,24.0,0.,24.0
1979-07-16 12:26:44.070 ,4,1,0.,24.0,0.,24.0
1979-07-16 12:27:08.070 ,7,1,0.,24.0,0.,24.0
1979-07-16 12:27:32.070 ,3,1,0.,24.0,0.,24.0
1979-07-16 12:27:56.070 ,0,1,0.,24.0,0.,24.0
1979-07-16 12:28:20.070 ,4,1,0.,24.0,0.,24.0
1979-07-16 12:28:44.070 ,7,1,0.,24.0,0.,24.0
1979-07-16 12:29:08.070 ,3,1,0.,24.0,0.,24.0
1979-07-16 12:29:32.070 ,0,1,0.,24.0,0.,24.0
1979-07-16 12:29:56.070 ,0,0,0.,24.0,0.,24.0
1979-07-16 12:30:20.070 ,0,0,0.,24.0,0.,24.0
1979-07-16 12:30:44.070 ,5,1,0.,24.0,0.,24.0
1979-07-16 12:31:08.070 ,5,0,0.,24.0,0.,24.0
1979-07-16 12:31:32.070 ,4,1,0.,24.0,0.,24.0
1979-07-16 12:31:56.070 ,4,0,0.,24.0,0.,24.0
1979-07-16 12:32:20.070 ,3,1,0.,24.0,0.,24.0
1979-07-16 12:32:44.070 ,3,0,0.,24.0,0.,24.0
1979-07-16 12:33:08.070 ,2,1,0.,24.0,0.,24.0
1979-07-16 12:33:32.070 ,2,0,0.,24.0,0.,24.0
1979-07-16 12:33:56.070 ,1,1,0.,24.0,0.,24.0
1979-07-16 12:34:20.070 ,1,0,0.,24.0,0.,24.0
1979-07-16 12:34:44.070 ,0,1,0.,24.0,0.,24.0
1979-07-16 12:35:08.070 ,0,0,0.,24.0,0.,24.0
1979-07-16 12:35:32.070 ,0,1,0.,24.0,0.,24.0
1979-07-16 12:35:56.070 ,0,0,0.,24.0,0.,24.0
1979-07-16 12:36:20.070 ,1,1,0.,24.0,0.,24.0
1979-07-16 12:36:44.070 ,1,0,0.,24.0,0.,24.0
1979-07-16 12:37:08.070 ,2,1,0.,24.0,0.,24.0
1979-07-16 12:37:32.070 ,2,0,0.,24.0,0.,24.0
1979-07-16 12:37:56.070 ,3,1,0.,24.0,0.,24.0
1979-07-16 12:38:20.070 ,3,0,0.,24.0,0.,24.0
1979-07-16 12:38:44.070 ,4,1,0.,24.0,0.,24.0
1979-07-16 12:39:08.070 ,4,0,0.,24.0,0.,24.0
1979-07-16 12:39:32.070 ,5,1,0.,24.0,0.,24.0
1979-07-16 12:39:56.070 ,5,0,0.,24.0,0.,24.0
1979-07-16 12:40:20.070 ,6,1,0.,24.0,0.,24.0
1979-07-16 12:40:44.070 ,6,0,0.,24.0,0.,24.0
1979-07-16 12:41:07.970 ,7,1,0.,24.0,0.,24.0
1979-07-16 12:41:31.970 ,7,0,0.,24.0,0.,24.0
1979-07-16 12:41:55.970 ,7,1,0.,24.0,0.,24.0
1979-07-16 12:42:19.970 ,7,0,0.,24.0,0.,24.0
1979-07-16 12:42:43.970 ,6,1,0.,24.0,0.,24.0
1979-07-16 12:43:07.970 ,6,0,0.,24.0,0.,24.0
1979-07-16 12:44:28.370 ,0,0,0.,24.0,0.,24.0
1979-07-16 12:44:43.970 ,0,0,0.,24.0,0.,24.0
1979-07-16 12:45:07.970 ,3,1,0.,24.0,0.,24.0
1979-07-16 12:45:31.970 ,3,0,0.,24.0,0.,24.0
1979-07-16 12:45:55.970 ,2,1,0.,24.0,0.,24.0
1979-07-16 12:46:19.970 ,2,0,0.,24.0,0.,24.0
1979-07-16 12:46:43.970 ,1,1,0.,24.0,0.,24.0
1979-07-16 12:47:07.970 ,1,0,0.,24.0,0.,24.0
1979-07-16 12:47:31.970 ,0,1,0.,24.0,0.,24.0
1979-07-16 12:47:55.970 ,0,0,0.,24.0,0.,24.0
1979-07-16 12:48:19.970 ,0,1,0.,24.0,0.,24.0
1979-07-16 12:48:43.970 ,0,0,0.,24.0,0.,24.0
1979-07-16 12:49:07.970 ,1,1,0.,24.0,0.,24.0
1979-07-16 12:49:31.970 ,1,0,0.,24.0,0.,24.0
1979-07-16 12:49:55.970 ,2,1,0.,24.0,0.,24.0
1979-07-16 12:50:19.970 ,2,0,0.,24.0,0.,24.0
1979-07-16 12:50:43.970 ,3,1,0.,24.0,0.,24.0
1979-07-16 12:51:07.970 ,3,0,0.,24.0,0.,24.0
1979-07-16 12:51:31.970 ,4,1,0.,24.0,0.,24.0
1979-07-16 12:51:55.970 ,4,0,0.,24.0,0.,24.0
1979-07-16 12:52:19.970 ,5,1,0.,24.0,0.,24.0
1979-07-16 12:52:43.970 ,5,0,0.,24.0,0.,24.0
1979-07-16 12:53:07.970 ,6,1,0.,24.0,0.,24.0
1979-07-16 12:53:31.970 ,6,0,0.,24.0,0.,24.0
1979-07-16 12:53:55.970 ,7,1,0.,24.0,0.,24.0
1979-07-16 12:54:19.970 ,7,0,0.,24.0,0.,24.0
1979-07-16 12:54:43.970 ,7,1,0.,24.0,0.,24.0
1979-07-16 12:55:07.970 ,7,0,0.,24.0,0.,24.0
1979-07-16 12:55:31.970 ,6,1,0.,24.0,0.,24.0
1979-07-16 12:55:55.970 ,6,0,0.,24.0,0.,24.0
1979-07-16 12:56:19.970 ,5,1,0.,24.0,0.,24.0
1979-07-16 12:56:43.970 ,5,0,0.,24.0,0.,24.0
1979-07-16 12:57:07.970 ,4,1,0.,24.0,0.,24.0
1979-07-16 12:57:31.970 ,4,0,0.,24.0,0.,24.0
1979-07-16 12:57:55.970 ,3,1,0.,24.0,0.,24.0
1979-07-16 12:58:19.970 ,3,0,0.,24.0,0.,24.0
1979-07-16 12:58:43.970 ,2,1,0.,24.0,0.,24.0
1979-07-16 12:59:07.970 ,2,0,0.,24.0,0.,24.0
1979-07-16 12:59:31.970 ,1,1,0.,24.0,0.,24.0
1979-07-16 12:59:55.970 ,1,0,0.,24.0,0.,24.0
1979-07-16 13:00:19.970 ,0,1,0.,24.0,0.,24.0
1979-07-16 13:00:43.970 ,0,0,0.,24.0,0.,24.0
1979-07-16 13:01:07.970 ,0,1,0.,24.0,0.,24.0
1979-07-16 13:01:31.970 ,0,0,0.,24.0,0.,24.0
1979-07-16 13:01:55.970 ,1,1,0.,24.0,0.,24.0
1979-07-16 13:02:19.970 ,1,0,0.,24.0,0.,24.0
1979-07-16 13:02:43.970 ,2,1,0.,24.0,0.,24.0
1979-07-16 13:03:07.970 ,2,0,0.,24.0,0.,24.0
1979-07-16 13:03:31.970 ,3,1,0.,24.0,0.,24.0
1979-07-16 13:03:55.970 ,3,0,0.,24.0,0.,24.0
1979-07-16 13:04:19.970 ,4,1,0.,24.0,0.,24.0
1979-07-16 13:04:43.970 ,4,0,0.,24.0,0.,24.0
1979-07-16 13:05:07.970 ,5,1,0.,24.0,0.,24.0
1979-07-16 13:05:31.970 ,5,0,0.,24.0,0.,24.0
1979-07-16 13:05:55.970 ,6,1,0.,24.0,0.,24.0
1979-07-16 13:06:19.970 ,6,0,0.,24.0,0.,24.0
1979-07-16 13:06:43.970 ,7,0,0.,24.0,0.,24.0
1979-07-16 13:07:07.970 ,7,0,0.,24.0,0.,24.0
1979-07-16 13:07:31.970 ,3,1,0.,24.0,0.,24.0
1979-07-16 13:07:55.970 ,0,1,0.,24.0,0.,24.0
1979-07-16 13:08:19.970 ,4,1,0.,24.0,0.,24.0
1979-07-16 13:08:43.970 ,7,1,0.,24.0,0.,24.0
1979-07-16 13:09:07.970 ,3,1,0.,24.0,0.,24.0
1979-07-16 13:09:31.970 ,0,1,0.,24.0,0.,24.0
1979-07-16 13:09:55.970 ,4,1,0.,24.0,0.,24.0
1979-07-16 13:10:19.970 ,7,1,0.,24.0,0.,24.0
1979-07-16 13:10:43.970 ,3,1,0.,24.0,0.,24.0
1979-07-16 13:11:07.970 ,0,1,0.,24.0,0.,24.0
1979-07-16 13:11:31.970 ,4,1,0.,24.0,0.,24.0
1979-07-16 13:11:55.970 ,7,1,0.,24.0,0.,24.0
1979-07-16 13:12:19.970 ,3,1,0.,24.0,0.,24.0
1979-07-16 13:12:43.970 ,0,1,0.,24.0,0.,24.0
1979-07-16 13:13:07.970 ,4,1,0.,24.0,0.,24.0
1979-07-16 13:13:31.970 ,7,1,0.,24.0,0.,24.0
1979-07-16 13:13:55.970 ,3,1,0.,24.0,0.,24.0
1979-07-16 13:14:19.970 ,0,1,0.,24.0,0.,24.0
1979-07-16 13:14:43.970 ,4,1,0.,24.0,0.,24.0
1979-07-16 13:15:07.970 ,7,1,0.,24.0,0.,24.0
1979-07-16 13:15:31.970 ,3,1,0.,24.0,0.,24.0
1979-07-16 13:15:55.970 ,0,1,0.,24.0,0.,24.0
1979-07-16 13:16:19.970 ,4,1,0.,24.0,0.,24.0
1979-07-16 13:16:43.970 ,7,1,0.,24.0,0.,24.0
1979-07-16 13:17:07.970 ,3,1,0.,24.0,0.,24.0
1979-07-16 13:17:31.970 ,0,1,0.,24.0,0.,24.0
1979-07-16 13:17:55.970 ,0,0,0.,24.0,0.,24.0
1979-07-16 13:18:19.970 ,0,0,0.,24.0,0.,24.0
1979-07-16 13:18:43.970 ,5,1,0.,24.0,0.,24.0
1979-07-16 13:19:07.970 ,5,0,0.,24.0,0.,24.0
1979-07-16 13:19:31.970 ,4,1,0.,24.0,0.,24.0
1979-07-16 13:19:55.970 ,4,0,0.,24.0,0.,24.0
1979-07-16 13:20:19.970 ,3,1,0.,24.0,0.,24.0
1979-07-16 13:20:43.970 ,3,0,0.,24.0,0.,24.0
1979-07-16 13:21:07.970 ,2,1,0.,24.0,0.,24.0
1979-07-16 13:21:31.970 ,2,0,0.,24.0,0.,24.0
1979-07-16 13:21:55.970 ,1,1,0.,24.0,0.,24.0
1979-07-16 13:22:19.970 ,1,0,0.,24.0,0.,24.0
1979-07-16 13:22:43.970 ,0,1,0.,24.0,0.,24.0
1979-07-16 13:23:07.970 ,0,0,0.,24.0,0.,24.0
1979-07-16 13:23:31.970 ,0,1,0.,24.0,0.,24.0
1979-07-16 13:23:55.970 ,0,0,0.,24.0,0.,24.0
1979-07-16 13:24:19.970 ,1,1,0.,24.0,0.,24.0
1979-07-16 13:24:43.970 ,1,0,0.,24.0,0.,24.0
1979-07-16 13:25:07.970 ,2,1,0.,24.0,0.,24.0
1979-07-16 13:25:31.970 ,2,0,0.,24.0,0.,24.0
1979-07-16 13:25:55.970 ,3,1,0.,24.0,0.,24.0
1979-07-16 13:26:19.970 ,3,0,0.,24.0,0.,24.0
1979-07-16 13:26:43.970 ,4,1,0.,24.0,0.,24.0
1979-07-16 13:27:07.970 ,4,0,0.,24.0,0.,24.0
1979-07-16 13:27:31.970 ,5,1,0.,24.0,0.,24.0
1979-07-16 13:27:55.970 ,5,0,0.,24.0,0.,24.0
1979-07-16 13:28:19.970 ,6,1,0.,24.0,0.,24.0
1979-07-16 13:28:43.970 ,6,0,0.,24.0,0.,24.0
1979-07-16 13:29:07.970 ,7,1,0.,24.0,0.,24.0
1979-07-16 13:29:31.970 ,7,0,0.,24.0,0.,24.0
1979-07-16 13:29:55.970 ,7,1,0.,24.0,0.,24.0
1979-07-16 13:30:19.970 ,7,0,0.,24.0,0.,24.0
1979-07-16 13:30:43.970 ,6,1,0.,24.0,0.,24.0
1979-07-16 13:31:07.970 ,6,0,0.,24.0,0.,24.0
1979-07-16 13:31:31.970 ,5,1,0.,24.0,0.,24.0
1979-07-16 13:31:55.970 ,5,0,0.,24.0,0.,24.0
1979-07-16 13:32:19.970 ,4,1,0.,24.0,0.,24.0
1979-07-16 13:32:43.970 ,4,0,0.,24.0,0.,24.0
1979-07-16 13:33:07.970 ,3,1,0.,24.0,0.,24.0
1979-07-16 13:33:31.970 ,3,0,0.,24.0,0.,24.0
1979-07-16 13:33:55.970 ,2,1,0.,24.0,0.,24.0
1979-07-16 13:34:19.970 ,2,0,0.,24.0,0.,24.0
1979-07-16 13:34:43.970 ,1,1,0.,24.0,0.,24.0
1979-07-16 13:35:07.970 ,1,0,0.,24.0,0.,24.0
1979-07-16 13:35:31.970 ,0,1,0.,24.0,0.,24.0
1979-07-16 13:35:55.970 ,0,0,0.,24.0,0.,24.0
1979-07-16 13:36:19.970 ,0,1,0.,24.0,0.,24.0
1979-07-16 13:36:43.970 ,0,0,0.,24.0,0.,24.0
1979-07-16 13:37:07.970 ,1,1,0.,24.0,0.,24.0
1979-07-16 13:37:31.970 ,1,0,0.,24.0,0.,24.0
1979-07-16 13:37:55.970 ,2,1,0.,24.0,0.,24.0
1979-07-16 13:38:19.970 ,2,0,0.,24.0,0.,24.0
1979-07-16 13:38:43.970 ,3,1,0.,24.0,0.,24.0
1979-07-16 13:39:07.970 ,3,0,0.,24.0,0.,24.0
1979-07-16 13:39:31.970 ,4,1,0.,24.0,0.,24.0
1979-07-16 13:39:55.970 ,4,0,0.,24.0,0.,24.0
1979-07-16 13:40:19.970 ,5,1,0.,24.0,0.,24.0
1979-07-16 13:40:43.970 ,5,0,0.,24.0,0.,24.0
1979-07-16 13:41:07.970 ,6,1,0.,24.0,0.,24.0
1979-07-16 13:41:31.970 ,6,0,0.,24.0,0.,24.0
1979-07-16 13:41:55.970 ,7,1,0.,24.0,0.,24.0
1979-07-16 13:42:19.970 ,7,0,0.,24.0,0.,24.0
1979-07-16 13:42:43.970 ,7,1,0.,24.0,0.,24.0
1979-07-16 13:43:07.970 ,7,0,0.,24.0,0.,24.0
1979-07-16 13:43:31.960 ,6,1,0.,24.0,0.,24.0
1979-07-16 13:43:55.960 ,6,0,0.,24.0,0.,24.0
1979-07-16 13:44:19.960 ,5,1,0.,24.0,0.,24.0
1979-07-16 13:44:43.960 ,5,0,0.,24.0,0.,24.0
1979-07-16 13:45:07.960 ,4,1,0.,24.0,0.,24.0
1979-07-16 13:45:31.960 ,4,0,0.,24.0,0.,24.0
1979-07-16 13:45:55.960 ,3,1,0.,24.0,0.,24.0
1979-07-16 13:46:19.960 ,3,0,0.,24.0,0.,24.0
1979-07-16 13:46:43.960 ,2,1,0.,24.0,0.,24.0
1979-07-16 13:47:07.960 ,2,0,0.,24.0,0.,24.0
1979-07-16 13:47:31.960 ,1,1,0.,24.0,0.,24.0
1979-07-16 13:47:55.960 ,1,0,0.,24.0,0.,24.0
1979-07-16 13:48:19.960 ,0,1,0.,24.0,0.,24.0
1979-07-16 13:48:43.960 ,0,0,0.,24.0,0.,24.0
1979-07-16 13:49:07.960 ,0,1,0.,24.0,0.,24.0
1979-07-16 13:49:31.960 ,0,0,0.,24.0,0.,24.0
1979-07-16 13:49:55.960 ,1,1,0.,24.0,0.,24.0
1979-07-16 13:50:19.960 ,1,0,0.,24.0,0.,24.0
1979-07-16 13:50:43.960 ,2,1,0.,24.0,0.,24.0
1979-07-16 13:51:07.960 ,2,0,0.,24.0,0.,24.0
1979-07-16 13:51:31.960 ,3,1,0.,24.0,0.,24.0
1979-07-16 13:51:55.960 ,3,0,0.,24.0,0.,24.0
1979-07-16 13:52:19.960 ,4,1,0.,24.0,0.,24.0
1979-07-16 13:52:43.960 ,4,0,0.,24.0,0.,24.0
1979-07-16 13:53:07.960 ,5,1,0.,24.0,0.,24.0
1979-07-16 13:53:31.960 ,5,0,0.,24.0,0.,24.0
1979-07-16 13:53:55.960 ,6,1,0.,24.0,0.,24.0
1979-07-16 13:54:19.960 ,6,0,0.,24.0,0.,24.0
1979-07-16 13:54:43.960 ,7,0,0.,24.0,0.,24.0
1979-07-16 13:55:07.960 ,7,0,0.,24.0,0.,24.0
1979-07-16 13:55:31.960 ,3,1,0.,24.0,0.,24.0
1979-07-16 13:55:55.960 ,0,1,0.,24.0,0.,24.0
1979-07-16 13:56:19.960 ,4,1,0.,24.0,0.,24.0
1979-07-16 13:56:43.960 ,7,1,0.,24.0,0.,24.0
1979-07-16 13:57:07.960 ,3,1,0.,24.0,0.,24.0
1979-07-16 13:57:31.960 ,0,1,0.,24.0,0.,24.0
1979-07-16 13:57:55.960 ,4,1,0.,24.0,0.,24.0
1979-07-16 13:58:19.960 ,7,1,0.,24.0,0.,24.0
1979-07-16 13:58:43.960 ,3,1,0.,24.0,0.,24.0
1979-07-16 13:59:07.960 ,0,1,0.,24.0,0.,24.0
1979-07-16 13:59:31.960 ,4,1,0.,24.0,0.,24.0
1979-07-16 13:59:55.960 ,7,1,0.,24.0,0.,24.0
1979-07-16 14:00:19.960 ,3,1,0.,24.0,0.,24.0
1979-07-16 14:00:43.970 ,0,1,0.,24.0,0.,24.0
1979-07-16 14:01:07.970 ,4,1,0.,24.0,0.,24.0
1979-07-16 14:01:31.970 ,7,1,0.,24.0,0.,24.0
1979-07-16 14:01:55.970 ,3,1,0.,24.0,0.,24.0
1979-07-16 14:02:19.970 ,0,1,1.,24.0,0.,24.0
1979-07-16 14:02:43.960 ,4,1,0.,24.0,0.,24.0
1979-07-16 14:03:07.960 ,7,1,0.,24.0,0.,24.0
1979-07-16 14:03:31.960 ,3,1,0.,24.0,0.,24.0
1979-07-16 14:03:55.960 ,0,1,0.,24.0,0.,24.0
1979-07-16 14:04:19.960 ,4,1,0.,24.0,0.,24.0
1979-07-16 14:04:43.960 ,7,1,0.,24.0,0.,24.0
1979-07-16 14:05:07.960 ,3,1,0.,24.0,0.,24.0
1979-07-16 14:05:31.960 ,0,1,0.,24.0,0.,24.0
1979-07-16 14:05:55.960 ,0,0,0.,24.0,0.,24.0
1979-07-16 14:06:19.960 ,0,0,0.,24.0,0.,24.0
1979-07-16 14:06:43.960 ,5,1,0.,24.0,0.,24.0
1979-07-16 14:07:07.960 ,5,0,0.,24.0,0.,24.0
1979-07-16 14:07:31.960 ,4,1,0.,24.0,0.,24.0
1979-07-16 14:07:55.960 ,4,0,0.,24.0,0.,24.0
1979-07-16 14:08:19.960 ,3,1,0.,24.0,0.,24.0
1979-07-16 14:08:43.960 ,3,0,0.,24.0,0.,24.0
1979-07-16 14:09:07.960 ,2,1,0.,24.0,0.,24.0
1979-07-16 14:09:31.960 ,2,0,0.,24.0,0.,24.0
1979-07-16 14:09:55.960 ,1,1,0.,24.0,0.,24.0
1979-07-16 14:10:19.960 ,1,0,0.,24.0,0.,24.0
1979-07-16 14:10:43.960 ,0,1,0.,24.0,0.,24.0
1979-07-16 14:11:07.960 ,0,0,0.,24.0,0.,24.0
1979-07-16 14:11:31.960 ,0,1,0.,24.0,0.,24.0
1979-07-16 14:11:55.960 ,0,0,0.,24.0,0.,24.0
1979-07-16 14:12:19.960 ,1,1,0.,24.0,0.,24.0
1979-07-16 14:12:43.960 ,1,0,0.,24.0,0.,24.0
1979-07-16 14:13:07.960 ,2,1,0.,24.0,0.,24.0
1979-07-16 14:13:31.960 ,2,0,0.,24.0,0.,24.0
1979-07-16 14:13:55.960 ,3,1,0.,24.0,0.,24.0
1979-07-16 14:14:19.960 ,3,0,0.,24.0,0.,24.0
1979-07-16 14:14:43.960 ,4,1,0.,24.0,0.,24.0
1979-07-16 14:15:07.960 ,4,0,0.,24.0,0.,24.0
1979-07-16 14:15:31.960 ,5,1,0.,24.0,0.,24.0
1979-07-16 14:15:55.960 ,5,0,0.,24.0,0.,24.0
1979-07-16 14:16:19.960 ,6,1,0.,24.0,0.,24.0
1979-07-16 14:16:43.960 ,6,0,0.,24.0,0.,24.0
1979-07-16 14:17:07.960 ,7,1,0.,24.0,0.,24.0
1979-07-16 14:17:31.960 ,7,0,0.,24.0,0.,24.0
1979-07-16 14:17:55.960 ,7,1,0.,24.0,0.,24.0
1979-07-16 14:18:19.960 ,7,0,0.,24.0,0.,24.0
1979-07-16 14:18:43.960 ,6,1,0.,24.0,0.,24.0
1979-07-16 14:19:07.960 ,6,0,0.,24.0,0.,24.0
1979-07-16 14:19:31.960 ,5,1,0.,24.0,0.,24.0
1979-07-16 14:19:55.960 ,5,0,0.,24.0,0.,24.0
1979-07-16 14:20:19.960 ,4,1,0.,24.0,0.,24.0
1979-07-16 14:20:43.960 ,4,0,0.,24.0,0.,24.0
1979-07-16 14:21:07.960 ,3,1,0.,24.0,0.,24.0
1979-07-16 14:21:31.960 ,3,0,0.,24.0,0.,24.0
1979-07-16 14:21:55.960 ,2,1,0.,24.0,0.,24.0
1979-07-16 14:22:19.960 ,2,0,0.,24.0,0.,24.0
1979-07-16 14:22:43.960 ,1,1,0.,24.0,0.,24.0
1979-07-16 14:23:07.960 ,1,0,0.,24.0,0.,24.0
1979-07-16 14:23:31.960 ,0,1,0.,24.0,0.,24.0
1979-07-16 14:23:55.960 ,0,0,0.,24.0,0.,24.0
1979-07-16 14:24:19.960 ,0,1,0.,24.0,0.,24.0
1979-07-16 14:24:43.960 ,0,0,0.,24.0,0.,24.0
1979-07-16 14:25:55.960 ,0,0,0.,24.0,0.,24.0
1979-07-16 14:26:19.960 ,0,0,0.,24.0,0.,24.0
1979-07-16 14:26:43.960 ,3,1,0.,24.0,0.,24.0
1979-07-16 14:27:07.960 ,3,0,0.,24.0,0.,24.0
1979-07-16 14:27:31.960 ,4,1,0.,24.0,0.,24.0
1979-07-16 14:27:55.960 ,4,0,0.,24.0,0.,24.0
1979-07-16 14:28:19.960 ,5,1,0.,24.0,0.,24.0
1979-07-16 14:28:43.960 ,5,0,0.,24.0,0.,24.0
1979-07-16 14:29:07.960 ,6,1,0.,24.0,0.,24.0
1979-07-16 14:29:31.960 ,6,0,0.,24.0,0.,24.0
1979-07-16 14:29:55.960 ,7,1,0.,24.0,0.,24.0
1979-07-16 14:30:19.960 ,7,0,0.,24.0,0.,24.0
1979-07-16 14:30:43.960 ,7,1,0.,24.0,0.,24.0
1979-07-16 14:31:07.960 ,7,0,0.,24.0,0.,24.0
1979-07-16 14:31:31.960 ,6,1,0.,24.0,0.,24.0
1979-07-16 14:31:55.960 ,6,0,0.,24.0,0.,24.0
1979-07-16 14:32:19.960 ,5,1,0.,24.0,0.,24.0
1979-07-16 14:32:43.960 ,5,0,0.,24.0,0.,24.0
1979-07-16 14:33:07.960 ,4,1,0.,24.0,0.,24.0
1979-07-16 14:33:31.960 ,4,0,0.,24.0,0.,24.0
1979-07-16 14:33:55.960 ,3,1,0.,24.0,0.,24.0
1979-07-16 14:34:19.960 ,3,0,0.,24.0,0.,24.0
1979-07-16 14:34:43.960 ,2,1,0.,24.0,0.,24.0
1979-07-16 14:35:07.960 ,2,0,0.,24.0,0.,24.0
1979-07-16 14:35:31.960 ,1,1,0.,24.0,0.,24.0
1979-07-16 14:35:55.960 ,1,0,0.,24.0,0.,24.0
1979-07-16 14:36:19.960 ,0,1,0.,24.0,0.,24.0
1979-07-16 14:36:43.960 ,0,0,0.,24.0,0.,24.0
1979-07-16 14:37:07.960 ,0,1,0.,24.0,0.,24.0
1979-07-16 14:37:31.960 ,0,0,0.,24.0,0.,24.0
1979-07-16 14:37:55.960 ,1,1,0.,24.0,0.,24.0
1979-07-16 14:38:19.960 ,1,0,0.,24.0,0.,24.0
1979-07-16 14:38:43.960 ,2,1,0.,24.0,0.,24.0
1979-07-16 14:39:07.960 ,2,0,0.,24.0,0.,24.0
1979-07-16 14:39:31.960 ,3,1,0.,24.0,0.,24.0
1979-07-16 14:39:55.960 ,3,0,0.,24.0,0.,24.0
1979-07-16 14:40:19.960 ,4,1,0.,24.0,0.,24.0
1979-07-16 14:40:43.960 ,4,0,0.,24.0,0.,24.0
1979-07-16 14:41:07.960 ,5,1,0.,24.0,0.,24.0
1979-07-16 14:41:31.960 ,5,0,0.,24.0,0.,24.0
1979-07-16 14:41:55.960 ,6,1,0.,24.0,0.,24.0
1979-07-16 14:42:19.960 ,0,0,0.,24.0,0.,24.0
1979-07-16 14:42:49.360 ,7,0,0.,24.0,0.,24.0
1979-07-16 14:43:07.960 ,7,0,0.,24.0,0.,24.0
1979-07-16 14:43:31.960 ,3,1,0.,24.0,0.,24.0
1979-07-16 14:43:55.960 ,0,1,0.,24.0,0.,24.0
1979-07-16 14:44:19.960 ,4,1,0.,24.0,0.,24.0
1979-07-16 14:44:43.960 ,7,1,0.,24.0,0.,24.0
1979-07-16 14:45:07.960 ,3,1,0.,24.0,0.,24.0
1979-07-16 14:45:31.960 ,0,1,0.,24.0,0.,24.0
1979-07-16 14:45:55.960 ,4,1,0.,24.0,0.,24.0
1979-07-16 14:46:19.960 ,7,1,0.,24.0,0.,24.0
1979-07-16 14:46:43.960 ,3,1,0.,24.0,0.,24.0
1979-07-16 14:47:07.960 ,0,1,0.,24.0,0.,24.0
1979-07-16 14:47:31.960 ,4,1,0.,24.0,0.,24.0
1979-07-16 14:47:55.960 ,7,1,0.,24.0,0.,24.0
1979-07-16 14:48:19.960 ,3,1,0.,24.0,0.,24.0
1979-07-16 14:48:43.960 ,0,1,0.,24.0,0.,24.0
1979-07-16 14:49:07.960 ,4,1,0.,24.0,0.,24.0
1979-07-16 14:49:31.960 ,7,1,0.,24.0,0.,24.0
1979-07-16 14:49:55.960 ,3,1,0.,24.0,0.,24.0
1979-07-16 14:50:19.960 ,0,1,0.,24.0,0.,24.0
1979-07-16 14:50:43.960 ,4,1,0.,24.0,0.,24.0
1979-07-16 14:51:07.960 ,7,1,0.,24.0,0.,24.0
1979-07-16 14:51:31.960 ,3,1,0.,24.0,0.,24.0
1979-07-16 14:51:55.960 ,0,1,0.,24.0,0.,24.0
1979-07-16 14:52:19.960 ,4,1,0.,24.0,0.,24.0
1979-07-16 14:52:43.960 ,7,1,0.,24.0,0.,24.0
1979-07-16 14:53:07.960 ,3,1,0.,24.0,0.,24.0
1979-07-16 14:53:31.960 ,0,1,0.,24.0,0.,24.0
1979-07-16 14:53:55.960 ,0,0,0.,24.0,0.,24.0
1979-07-16 14:54:19.960 ,0,0,0.,24.0,0.,24.0
1979-07-16 14:54:43.960 ,5,1,0.,24.0,0.,24.0
1979-07-16 14:55:07.960 ,5,0,0.,24.0,0.,24.0
1979-07-16 14:55:31.960 ,4,1,0.,24.0,0.,24.0
1979-07-16 14:55:55.960 ,4,0,0.,24.0,0.,24.0
1979-07-16 14:57:07.960 ,0,0,0.,24.0,0.,24.0
1979-07-16 14:57:31.960 ,0,0,0.,24.0,0.,24.0
1979-07-16 14:57:55.960 ,1,1,0.,24.0,0.,24.0
1979-07-16 14:58:19.960 ,1,0,0.,24.0,0.,24.0
1979-07-16 14:58:43.960 ,0,1,0.,24.0,0.,24.0
1979-07-16 14:59:07.960 ,0,0,0.,24.0,0.,24.0
1979-07-16 14:59:31.960 ,0,1,0.,24.0,0.,24.0
1979-07-16 14:59:55.960 ,0,0,0.,24.0,0.,24.0
1979-07-16 15:00:19.960 ,1,1,0.,24.0,0.,24.0
